Home   Weather   Lage   Past weeks

Flag for Germany Past Weather in Lage, North Rhine-Westphalia, Germany — Yesterday and Last 2 Weeks

Now
36 °F

Passing clouds.


Feels Like: 33 °F
Forecast: 23 / 36 °F
Wind: 3 mph from Northeast

Location: Bueckeburg

Current Time: Dec 4, 2016 at 5:30:40 pm

Latest Report: Dec 4, 2016 at 4:20 pm


Visibility: N/A

Pressure: 30.39 "Hg

Humidity: 75%

Dew Point: 28 °F

Location of LageLocation

Past Weather in Lage — Graph

°F

Lage Temperature Yesterday

Maximum temperature yesterday: 41 °F (at 1:20 pm)
Minimum temperature yesterday: 28 °F (at 5:20 am)
Average temperature yesterday: 32 °F

High & Low Weather Summary for the Past Weeks

 TemperatureHumidityPressure
High61 °F (Nov 21, 10:20 pm)100% (Nov 23, 7:20 am)30.60 "Hg (Nov 23, 7:20 am)
Low21 °F (Nov 29, 3:20 am)53% (Dec 2, 1:20 pm)29.33 "Hg (Nov 20, 1:20 pm)
Average40 °F84%30.12 "Hg
* Reported Nov 19 4:20 pm — Dec 4 4:20 pm, Lage, Weather by CustomWeather, © 2016

Note: Actual official high and low records may vary slightly from our data, if they occured in-between our weather recording intervals... More about our weather records

Advertising

Lage Weather History for the Previous 24 Hours

Scroll right to see more
 ConditionsComfort  
Time TempWeatherWind HumidityBarometerVisibility
4:20 pm
Sun, Dec 4
36 °FPassing clouds.3 mph75%30.39 "HgN/A
3:20 pm37 °FPassing clouds.2 mph75%30.39 "HgN/A
2:20 pm39 °FPassing clouds.2 mph70%30.39 "HgN/A
1:20 pm37 °FPassing clouds.2 mph75%30.39 "HgN/A
12:20 pm37 °FPassing clouds.No wind75%30.39 "HgN/A
11:20 am32 °FPassing clouds.No wind87%30.39 "HgN/A
10:20 am30 °FScattered clouds.No wind86%30.42 "HgN/A
9:20 am25 °FPassing clouds.1 mph100%30.39 "HgN/A
8:20 am23 °FFog.2 mph100%30.39 "HgN/A
7:20 am25 °FPassing clouds.1 mph100%30.36 "HgN/A
6:20 am23 °FCold.No wind93%30.36 "HgN/A
5:20 am25 °FCold.1 mph93%30.36 "HgN/A
4:20 am27 °FChilly.3 mph100%30.36 "HgN/A
3:20 am27 °FChilly.2 mph100%30.36 "Hg0 mi
2:20 am27 °FChilly.2 mph100%30.36 "Hg4 mi
1:20 am28 °FChilly.3 mph93%30.36 "Hg1 mi
12:20 am28 °FChilly.3 mph93%30.36 "HgN/A
11:20 pm
Sat, Dec 3
28 °FChilly.3 mph100%30.36 "Hg5 mi
10:20 pm28 °FChilly.3 mph100%30.36 "HgN/A
9:20 pm28 °FChilly.3 mph100%30.36 "Hg2 mi
8:20 pm30 °FChilly.5 mph93%30.33 "HgN/A
7:20 pm30 °FChilly.3 mph93%30.33 "HgN/A
6:20 pm34 °FChilly.7 mph87%30.33 "HgN/A
5:20 pm30 °FChilly.6 mph93%30.30 "HgN/A
Weather by CustomWeather, © 2016

See weather overviewHow to use our weather pages